769  
ASUS41 KPHI 182013  
RWRPHI  
 
REGIONAL WEATHER ROUNDUP  
NATIONAL WEATHER SERVICE MOUNT HOLLY NJ  
400 PM EDT WED JUL 18 2018  
 
NOTE: "FAIR" INDICATES FEW OR NO CLOUDS BELOW 12,000 FEET WITH NO  
SIGNIFICANT WEATHER AND/OR S TO VISIBILITY
.  
 
* = STATION DOES NOT REPORT PRECIPITATION (E.G. RAIN, SNOW, ETC.)  
OR FOG.
 
 
NJZ015>026-182100-  
SOUTHERN NEW JERSEY  
 
CITY SKY/WX TMP DP RH WIND PRES REMARKS
 
POMONA FAIR 84 60 44 VRB7 29.90F  
WILDWOOD* FAIR 82 64 54 E12 29.92S  
MILLVILLE FAIR 86 60 41 N12 29.90S  
WRIGHTSTOWN FAIR 83 60 46 N9 29.88S  
MOUNT HOLLY FAIR 85 58 39 N8 29.90S  
TRENTON FAIR 86 56 35 N9 29.90F  
 

 
NJZ001>014-182100-  
NORTHERN NEW JERSEY  
 
CITY SKY/WX TMP DP RH WIND PRES REMARKS
 
SUSSEX FAIR 81 54 39 N8 29.93F  
ANDOVER* N/A 82 54 37 N7 29.93F  
MORRISTOWN MOSUNNY 82 59 44 N8G14 29.91S  
NEWARK FAIR 86 53 32 NW10 29.88F  
TETERBORO FAIR 86 55 34 N13G20 29.87F  
CALDWELL FAIR 84 52 33 NW10 29.90F  
SOMERVILLE FAIR 85 56 37 N9 29.89F  
ALLAIRE* FAIR 85 56 37 N7 29.90F  
TOMS RIVER* PTSUNNY 84 61 45 NW5 29.90F  
 

 
PAZ043-044-047-054-055-060>062-066>071-182100-  
EASTERN PENNSYLVANIA  
 
CITY SKY/WX TMP DP RH WIND PRES REMARKS
 
PHILADELPHIA FAIR 85 53 33 NE9G20 29.91S  
NORTH PHILA FAIR 87 56 34 N8 29.92F  
BLUE BELL* PTSUNNY 81 59 47 N5 29.94S  
DOYLESTOWN FAIR 85 58 39 NW9 29.92F  
QUAKERTOWN* SUNNY 84 57 39 NW8 29.94F  
PERKASIE* FAIR 77 57 50 N7 29.95F  
POTTSTOWN FAIR 82 58 43 NW7 29.95F  
LANCASTER FAIR 84 56 38 N8 29.95F  
COATESVILLE FAIR 81 57 44 NW9 29.97S  
READING FAIR 83 59 44 N13 29.93F  
ALLENTOWN FAIR 84 55 36 NW8 29.94F  
MOUNT POCONO FAIR 74 52 46 NW9G20 30.00F  
HAZLETON FAIR 79 54 41 N9G16 30.04S  
LEHIGHTON FAIR 81 50 34 NW7 29.96F  
WILKES BARRE PTSUNNY 78 54 43 N15G22 29.98F  
 

 
DEZALL-MDZ008-012-015-019-020-182100-  
DELAWARE AND EASTERN MARYLAND  
 
CITY SKY/WX TMP DP RH WIND PRES REMARKS
 
WILMINGTON CLOUDY 86 58 38 N7 29.92F  
DOVER MOSUNNY 86 59 40 N9 29.91S  
GEORGETOWN FAIR 84 60 44 N6 29.91F  
EASTON MOSUNNY 86 57 37 NW12 29.96F  
ABERDEEN MOSUNNY 84 57 39 VRB3 29.93F  
PATUXENT FAIR 88 57 34 NW10 29.93  
OCEAN CITY FAIR 82 63 52 E9 29.91F  
WALLOPS ISLAND FAIR 89 62 40 NW9 29.91S  
CAMBRIDGE SUNNY 84 54 34 NW12 29.93S  
SALISBURY FAIR 85 58 39 W14 29.91S  
 

 
PAZ001-021-NYZ056-072-MDZ011-DCZ001-182100-  
OTHER NEARBY LOCATIONS  
 
CITY SKY/WX TMP DP RH WIND PRES REMARKS
 
HARRISBURG FAIR 83 51 33 N8 29.95F  
STATE COLLEGE PTSUNNY 77 57 50 CALM 30.02F  
WILLIAMSPORT FAIR 82 49 31 VRB3 29.97S  
BINGHAMTON FAIR 71 49 45 NW12G23 30.03S  
NEW YORK CITY PTSUNNY 80 59 48 VRB3 29.92S  
BALTIMORE FAIR 87 55 33 NW10 29.93F  
WASHINGTON DC FAIR 88 55 32 N14 29.95S  
 

 
 
 
CLICK HERE TO GO TO PREVIOUS BULLETINS.

The Nexlab PA Page
The Nexlab NJ Page
The Nexlab DE Page
The Nexlab MD Page Main Text Page